Regional Weather Roundup
Issued by NWS Austin/San Antonio, TX

Home | Current Version | Previous Version | Text Only | Print | Product List | Glossary On
Versions: 1 2 3 4 5 6 7 8 9 10 11 12 13 14 15 16 17 18 19 20 21 22 23 24 25 26 27 28 29 30 31 32 33 34 35 36 37 38 39 40 41 42 43 44 45 46 47 48 49 50
000
ASUS44 KEWX 200701
RWREWX
SOUTH TEXAS REGIONAL WEATHER ROUNDUP
NATIONAL WEATHER SERVICE AUSTIN/SAN ANTONIO TX
100 AM CST MON NOV 20 2017

NOTE: "FAIR" INDICATED FEW OR NO CLOUDS BELOW 12,000 FEET WITH NO
SIGNIFICANT WEATHER AND/OR OBSTRUCTIONS TO VISIBILITY.

* - THESE STATIONS ARE NOT NWS OR FAA STATIONS...AND ARE NOT SUBJECT
    TO NWS AND FAA QUALITY CONTROL.

TXZ171-172-183>190-200800-
TEXAS HILL COUNTRY AND EDWARDS PLATEAU

CITY           SKY/WX    TMP DP  RH WIND       PRES   REMARKS
JUNCTION       CLOUDY    37  29  72 W3        30.20F
*LLANO         PTCLDY    36  32  87 CALM      30.26S
BURNET         PTCLDY    41  30  65 CALM      30.24S
*HORSESHOE BAY PTCLDY    35  32  87 CALM      30.22F
*KERRVILLE     CLOUDY    39  35  88 CALM      30.22S
*FREDERICKSBRG PTCLDY    37  32  81 CALM      30.21F
*ROCKSPRINGS   NOT AVBL
*BOERNE STAGE  CLOUDY    39  32  75 CALM      30.23S
*CASTROVILLE   CLOUDY    44  34  68 CALM      30.24F
HONDO          CLOUDY    46  32  58 NE6       30.22F WCI  43
*UVALDE        CLOUDY    45  33  61 NE8       30.22F WCI  41
DEL RIO        CLOUDY    45  36  70 CALM      30.18F
LAUGHLIN AFB   NOT AVBL
CARRIZO SPRGS  CLOUDY    43  39  87 CALM      30.20S
*EAGLE PASS    SUNNY     45  36  70 SE6       30.19F WCI  41
$$

TXZ173-191>194-202-209-217>225-228-200800-
CENTRAL AND SOUTH CENTRAL TEXAS

CITY           SKY/WX    TMP DP  RH WIND       PRES   REMARKS
GEORGETOWN     CLOUDY    37  31  78 CALM      30.25S
AUSTIN/BERGSTM PTCLDY    39  36  89 N3        30.23S
AUSTIN/MABRY   CLOUDY    43  35  73 CALM      30.24S
*AUSTIN/EXEC   CLOUDY    45  32  61 CALM      30.24R HAZE
*LAGO VISTA    PTCLDY    44  31  59 E3        30.23S
SAN MARCOS     CLOUDY    43  34  70 NW6       30.24S WCI  39
NEW BRAUNFELS  CLOUDY    43  37  79 N5        30.21F WCI  40
RANDOLPH AFB   CLOUDY    44  37  75 NW7       30.22S WCI  40
PT SAN ANTONIO CLOUDY    45  37  74 CALM      30.21R
SAN ANTONIO    CLOUDY    47  37  68 NW3       30.23R
STINSON FIELD  PTCLDY    47  35  63 CALM      30.21R
*LA GRANGE     PTCLDY    43  39  88 CALM      30.21S
*GIDDINGS      PTCLDY    42  37  80 CALM      30.24S
*GONZALES      PTCLDY    45  39  80 CALM      30.23R
$$

TXZ163>164-176>182-195>201-210>213-226-227-235-200800-
SOUTHEAST TEXAS

CITY           SKY/WX    TMP DP  RH WIND       PRES   REMARKS
COLLEGE STN    PTCLDY    50  33  52 E5        30.23R WCI  48
*BRYAN         PTCLDY    46  34  62 CALM      30.24S
*CALDWELL      PTCLDY    43  37  78 CALM      30.24R
*CROCKETT        N/A    N/A N/A N/A MISG        N/A
*BRENHAM       PTCLDY    43  40  89 CALM      30.24S
HUNTSVILLE     CLOUDY    41  37  86 CALM      30.22F
CONROE         CLOUDY    39  38  96 CALM      30.22F
HOUSTON BUSH   CLOUDY    46  40  79 CALM      30.22F
HOUSTON HOBBY  CLOUDY    49  41  74 CALM      30.22S
*HOUSTON SW AP PTCLDY    44  42  93 CALM      30.24S
PEARLAND       PTCLDY    50  43  77 NE3       30.23F
HOUSTON HOOKS  PTCLDY    43  42  97 CALM      30.23S
ELLINGTON FLD  CLOUDY    54  39  58 NE3       30.24S
SUGAR LAND     PTCLDY    46  42  86 CALM      30.22S
*HOUSTON EXEC  PTCLDY    45  39  81 CALM      30.24S
*CLEVELAND MUN PTCLDY    39  38  94 CALM      30.23F
*WHARTON       CLOUDY    46  39  78 CALM      30.22F
*COLUMBUS      FAIR      42  38  88 N3        30.23F
*EAGLE LAKE    MOSUNNY   44  39  82 CALM      30.22F
$$

TXZ214>216-236>238-200800-
THE UPPER TEXAS COAST

CITY           SKY/WX    TMP DP  RH WIND       PRES   REMARKS
*ORANGE        CLEAR     39  38  99 CALM      30.24F
PORT ARTHUR    CLEAR     47  38  71 NE5       30.21F WCI  45
GALVESTON      PTCLDY    58  40  51 N9        30.22F
ANGLETON       PTCLDY    47  41  80 NE3       30.21F
*BAY CITY      CLOUDY    49  41  73 CALM      30.21S
PALACIOS       CLOUDY    49  41  74 NE5       30.22S WCI  47
$$

TXZ229>234-239>247-200800-
TEXAS COASTAL BEND AND RIO GRANDE PLAINS

CITY           SKY/WX    TMP DP  RH WIND       PRES   REMARKS
VICTORIA       CLOUDY    47  40  76 NE5       30.22F WCI  45
*BEEVILLE      CLOUDY    51  41  69 N3        30.22R
ROCKPORT       MOCLDY    57  43  59 NE8       30.20F
*PORT ARANSAS  NOT AVBL
*PORT LAVACA   CLOUDY    51  40  65 NE3       30.22F
*INGLESIDE     NOT AVBL
CORPUS CHRISTI MOCLDY    48  34  58 NW5       30.20F WCI  46
CORPUS NAS     CLOUDY    62  42  47 NE12      30.19F
*ROBSTOWN      MOCLDY    51  38  62 CALM      30.22S
ALICE          CLOUDY    51  39  63 W5        30.22R
KINGSVILLE NAS PTCLDY    48  41  76 W7        30.21F WCI  45
COTULLA        CLOUDY    51  34  52 E3        30.21F
*FAITH RANCH   PTCLDY    50  37  62 E7        30.19F WCI  47
LAREDO         CLOUDY    52  36  54 SE7       30.21F
$$

TXZ248>255-200800-
DEEP SOUTH TEXAS

CITY           SKY/WX    TMP DP  RH WIND       PRES   REMARKS
BROWNSVILLE    CLOUDY    59  47  64 NW5       30.17F
PORT ISABEL    CLEAR     56  46  69 NW5       30.17F
*SOUTH PADRE   NOT AVBL
HARLINGEN      CLEAR     51  45  79 N6        30.18F
*HEBBRONVILLE  PTCLDY    46  38  72 CALM      30.21F
MCALLEN        PTCLDY    56  45  66 NE3       30.19F
*WESLACO       CLEAR     51  45  78 CALM      30.19S
FALFURRIAS     NOT AVBL
EDINBURG       CLEAR     53  44  73 CALM      30.20S
*ZAPATA        CLEAR     44  36  72 CALM      30.19F
$$

TXZ213>215-236>238-242>244-246-247-251-254-255-200800-
CMAN STATIONS

STATION/POSITION TIME  TEMP    WIND        PRES    WAVE
                       AIR SEA DIR/SP/G            HT/PER
                 (UTC) (F)     (DEG/KT/KT) (MB)    (FT/S)
SABINE PASS      0624   52 69   30/  7/ 10 1024.8
SEA RIM ST PARK  0600   52      60/  5/  5 1023.9
NORTH JETTY/GLS  0618      65   50/ 11/ 13 1022.9
EAGLE POINT      0624   59 65   90/ 10/ 12 1023.4
MORGANS POINT    0624   56 70   50/  7/  8 1023.3
PORT O`CONNOR    0624   61 67   60/ 11/ 15 1022.5
PORT ARANSAS     0600   60 71  360/  9/ 11 1023.0
MALAQUITE BEACH  0630   63 71  350/  9/ 10 1022.1
BAFFIN BAY       0630   60 67  350/  9/ 10 1022.7
PORT ISABEL      0630   60 73  300/  5/  8 1021.4
$$



USA.gov is the U.S. government's official web portal to all federal, state and local government web resources and services.